Find STARLINK-37415

NORAD ID: 100035 Int'l Des: 2026-161H Owner: SPXS Country: US Constellation: starlink operational

Aktuelle Ansicht

3D-Globus wird geladen...

About STARLINK-37415

STARLINK-37415 (NORAD 100035) is a starlink constellation satellite (v2 mini) launched Jul 14, 2026 by SPXS of US. with a mass of 575.00 kg.

Nächste Überflüge

Passes for default location (London). Set your location on the main map for personalized predictions.

Höhenverlauf

Loading altitude history...

Zweizeiliger Elementsatz

1 A0035U 26161H 26224.30793460 .00022278 00000-0 40722-3 0 9991
2 A0035 53.1616 182.3555 0001164 96.6119 263.5023 15.49326420 4578
Epoch: 12. Aug. 2026 • Age: 33 hours

Aktueller Status

Höhe 419.9 km
Apogäum / Perigäum N/A
Geschwindigkeit 7.66 km/s
Subsatellitenpunkt 30.02°N, 1.77°W
Startdatum 14. Juli 2026
Alter 30 days
Typ internet

Technische Details

Klassifizierung Payload
Masse 575.00 kg
Trockenmasse 530.00 kg
Gesamtmasse 575.00 kg
Länge 0.30 m
Durchmesser 4.10 m
Spannweite 29.00 m
Form Box + pan
Hersteller SPXS
Bus-Typ Starlink V2MO
Phasenstatus In Orbit
Besitzer/Staat SPXS/US

Most Searched